Wenatchee, WA
on Thursday, December 20, 2012

Thursday
Previous Day Next Day
Daily Summary
 ActualAverageRecord
Temperature
Mean Temperature °F 25°F  
Max Temperature 41°F 30°F 49°F (1966)
Min Temperature 31°F 19°F -7°F (2008)
Degree Days
Heating Degree Days 29 40  
Month to date heating degree days 640 777  
Since 1 July heating degree days 2255 2659  
Cooling Degree Days 0 0  
Month to date cooling degree days 0 0  
Year to date cooling degree days 294 249  
Moisture
Dew Point 26°F   
Average Humidity 85    
Maximum Humidity 93    
Minimum Humidity 68    
Precipitation
Precipitation 0.03 in 0.08 in 0.36 in (1970)
Month to date precipitation 1.96 1.65  
Year to date precipitation 22.50 16.20  
Snow
Snow 1.00 in 0.60 in in ()
Month to date snowfall 14.8 10.2  
Since 1 July snowfall 22.0 18.1  
Snow Depth 2.00 in   
Wind
Wind Speed 2 mph   
Max Wind Speed 6 mph   
Max Gust Speed mph   
Visibility 9 miles   
Events     

Key: T is trace of precipitation, MM is missing value
Source: NWS Daily Summary
Time(PST)TemperatureDew PointHumidity Pressure Visibility Wind DirectionWind SpeedGust SpeedPrecipitationEvents Conditions
12:55 AM 26.1°F 24.1°F 92% 29.80 in 7.0 miles Calm Calm - N/A   Overcast
1:14 AM 26.6°F 24.8°F 93% 29.75 in 7.0 miles Calm Calm - N/A   Overcast
1:55 AM 27.0°F 24.1°F 89% 29.77 in 6.0 miles Calm Calm - N/A   Overcast
2:20 AM 26.6°F 23.0°F 86% 29.73 in 6.0 miles Calm Calm - N/A   Overcast
2:34 AM 26.6°F 23.0°F 86% 29.72 in 7.0 miles NNE 4.6 mph - N/A   Overcast
2:43 AM 26.6°F 24.8°F 93% 29.72 in 8.0 miles Calm Calm - N/A   Overcast
2:55 AM 27.0°F 24.1°F 89% 29.76 in 9.0 miles Calm Calm - N/A   Overcast
3:28 AM 26.6°F 23.0°F 86% 29.70 in 10.0 miles Calm Calm - N/A   Overcast
3:46 AM 26.6°F 23.0°F 86% 29.70 in 9.0 miles North 4.6 mph - N/A   Overcast
3:55 AM 27.0°F 24.1°F 89% 29.75 in 9.0 miles North 3.5 mph - N/A   Overcast
4:55 AM 27.0°F 25.0°F 92% 29.73 in 7.0 miles WNW 3.5 mph - N/A   Overcast
5:55 AM 28.0°F 26.1°F 92% 29.73 in 6.0 miles Calm Calm - N/A   Overcast
6:55 AM 28.0°F 25.0°F 88% 29.71 in 9.0 miles WNW 3.5 mph - N/A   Overcast
7:55 AM 30.0°F 26.1°F 85% 29.71 in 10.0 miles NNW 3.5 mph - N/A   Overcast
8:55 AM 30.0°F 27.0°F 88% 29.70 in 10.0 miles Calm Calm - N/A   Overcast
9:55 AM 32.0°F 27.0°F 82% 29.69 in 10.0 miles Calm Calm - N/A   Overcast
10:55 AM 32.0°F 28.0°F 85% 29.68 in 10.0 miles NNW 3.5 mph - N/A   Overcast
11:55 AM 34.0°F 28.9°F 82% 29.68 in 10.0 miles NW 3.5 mph - N/A   Overcast
12:55 PM 37.0°F 28.0°F 70% 29.66 in 10.0 miles NE 3.5 mph - N/A   Overcast
1:55 PM 35.1°F 30.0°F 82% 29.67 in 10.0 miles Calm Calm - N/A   Mostly Cloudy
2:55 PM 37.9°F 28.0°F 68% 29.68 in 10.0 miles Variable 5.8 mph - N/A   Mostly Cloudy
3:55 PM 36.0°F 28.9°F 76% 29.71 in 10.0 miles Calm Calm - N/A   Clear
4:55 PM 32.0°F 27.0°F 82% 29.75 in 10.0 miles WSW 3.5 mph - N/A   Clear
5:55 PM 30.9°F 27.0°F 85% 29.77 in 10.0 miles North 4.6 mph - N/A   Clear
6:55 PM 30.0°F 25.0°F 82% 29.80 in 10.0 miles NNE 3.5 mph - N/A   Mostly Cloudy
7:55 PM 30.9°F 25.0°F 79% 29.81 in 10.0 miles SW 5.8 mph - N/A   Clear
8:55 PM 30.0°F 25.0°F 82% 29.83 in 10.0 miles Calm Calm - N/A   Clear
9:55 PM 33.1°F 27.0°F 78% 29.83 in 10.0 miles NW 5.8 mph - N/A   Clear
10:55 PM 32.0°F 27.0°F 82% 29.86 in 10.0 miles Calm Calm - N/A   Clear
11:55 PM 28.9°F 26.1°F 89% 29.86 in 10.0 miles East 3.5 mph - N/A   Clear
Moon Phase
Dec. 20 Dec. 28 Jan. 04 Jan. 11 Jan. 18
Sunrise:07:45 AM (PST) Moon Rise:11:52 AM (PST)12/20
Sunset:04:12 PM (PST) Moon Set:12:15 AM (PST)12/20

Copyright © 2014 The Weather Underground, Inc.